SCP
0 0 0 0 0 0 0 0 0 0 0 0 0 0 0 0 0 0 0 0 0 0
0 0 0 0 0 0 0 0 0 0 0 0 0 0 0 0 0 0 0 0 0 0
0 0 0 0 0 0 0 0 0 0 0 0 0 0 0 0 0 0 0 0 0 0
0 0 0 0 0 0 0 0 0 0 0 0 0 0 0 0 0 0 0 0 0 0
0 0 0 0 0 0 0 0 0 0 0 0 0 0 0 0 0 0 0 0 0 0
0 0 0 0 0 0 0 0 0 0 0 0 0 0 0 0 0 0 0 0 0 0
0 0 0 0 0 0 0 0 0 0 0 0 0 0 0 0 0 0 0 0 0 0
0 0 0 0 0 0 0 0 0 0 0 0 0 0 0 0 0 0 0 0 0 0
0 0 0 0 0 0 0 0 0 0 0 0 0 0 0 0 0 0 0 0 0 0
0 0 0 0 0 0 0 0 0 0 0 0 0 0 0 0 0 0 0 0 0 0
0 0 0 0 0 0 0 0 0 0 0 0 0 0 0 0 0 0 0 0 0 0
0 0 0 0 0 0 0 0 0 0 0 0 0 0 0 0 0 0 0 0 0 0
0 0 0 0 0 0 0 0 0 0 0 0 0 0 0 0 0 0 0 0 0 0
0 0 0 0 0 0 0 0 0 0 0 0 0 0 0 0 0 0 0 0 0 0
Wind_Speed_500mb
65 63 59 56 54 51 55 58 58 51 48 48 46 43 48 44 46 47 41 40 41 36
41 40 40 40 43 47 48 49 47 46 45 48 42 39 41 34 39 38 42 40 34 36
35 33 31 30 31 36 42 46 46 44 40 39 39 40 35 32 31 27 29 25 25 25
31 30 31 32 30 35 39 41 42 39 38 39 35 35 27 27 26 25 27 25 26 26
32 33 35 38 40 41 40 41 41 39 39 38 34 32 28 26 24 23 20 20 20 22
35 36 38 40 41 42 44 44 42 41 39 35 30 26 23 20 18 17 18 19 20 21
40 41 41 42 41 43 44 41 37 35 31 27 25 24 23 21 19 18 17 19 20 21
42 41 44 46 45 44 40 37 34 31 31 30 28 25 21 19 19 19 20 21 23 24
45 45 46 46 45 44 43 41 39 37 32 28 25 21 18 18 19 20 19 20 24 24
49 50 50 50 49 48 47 43 39 36 33 31 28 26 24 23 22 20 21 20 22 20
56 56 57 57 55 52 48 44 41 38 35 32 28 24 27 26 21 22 21 19 19 17
64 63 64 63 59 53 49 46 43 40 36 31 30 26 22 20 20 20 19 18 17 17
69 65 64 62 59 56 52 49 46 40 35 34 30 23 21 18 19 20 19 19 20 22
71 68 64 61 59 56 53 50 47 44 39 34 29 25 21 21 23 22 21 22 21 24
Wind_Direction_500mb
252 257 257 256 253 252 249 246 247 252 251 260 252 260 266 266 262 270 265 273 275 269
250 252 253 253 250 247 239 234 236 244 243 250 251 253 267 248 255 273 261 266 264 260
248 249 252 251 245 239 234 235 233 230 236 242 248 254 251 250 246 255 249 250 259 258
247 250 247 244 232 233 233 234 233 236 246 249 238 246 235 231 237 237 242 248 253 260
245 239 233 231 231 232 237 243 244 239 235 233 228 224 220 224 232 240 249 261 269 272
244 237 231 230 232 233 233 233 230 227 220 213 212 218 227 235 242 250 257 266 273 280
242 238 235 232 231 234 231 226 218 210 210 214 222 228 235 241 246 252 262 270 276 281
236 234 232 229 227 224 219 214 214 216 218 220 225 228 230 237 244 252 260 275 282 285
236 232 228 224 220 216 215 215 216 216 219 221 222 227 236 248 260 258 262 274 273 277
231 228 224 221 218 216 216 216 215 216 217 217 218 223 228 235 235 237 246 251 257 266
228 225 222 219 218 216 215 216 216 214 214 217 221 228 245 246 237 240 241 240 249 268
228 224 221 219 218 217 217 217 216 215 216 223 241 242 232 232 235 244 249 255 268 278
226 224 221 219 217 216 215 216 214 217 228 236 234 236 229 236 240 251 259 273 283 293
224 223 220 220 218 218 217 217 220 224 223 223 232 238 238 244 246 250 258 265 273 281
Wind_Speed_850mb
65 63 59 56 54 51 55 58 58 51 48 48 46 43 48 44 46 47 41 40 41 36
41 40 40 40 43 47 48 49 47 46 45 48 42 39 41 34 39 38 42 40 34 36
35 33 31 30 31 36 42 46 46 44 40 39 39 40 35 32 31 27 29 25 25 25
31 30 31 32 30 35 39 41 42 39 38 39 35 35 27 27 26 25 27 25 26 26
32 33 35 38 40 41 40 41 41 39 39 38 34 32 28 26 24 23 20 20 20 22
35 36 38 40 41 42 44 44 42 41 39 35 30 26 23 20 18 17 18 19 20 21
40 41 41 42 41 43 44 41 37 35 31 27 25 24 23 21 19 18 17 19 20 21
42 41 44 46 45 44 40 37 34 31 31 30 28 25 21 19 19 19 20 21 23 24
45 45 46 46 45 44 43 41 39 37 32 28 25 21 18 18 19 20 19 20 24 24
49 50 50 50 49 48 47 43 39 36 33 31 28 26 24 23 22 20 21 20 22 20
56 56 57 57 55 52 48 44 41 38 35 32 28 24 27 26 21 22 21 19 19 17
64 63 64 63 59 53 49 46 43 40 36 31 30 26 22 20 20 20 19 18 17 17
69 65 64 62 59 56 52 49 46 40 35 34 30 23 21 18 19 20 19 19 20 22
71 68 64 61 59 56 53 50 47 44 39 34 29 25 21 21 23 22 21 22 21 24
Wind_Direction_850mb
252 257 257 256 253 252 249 246 247 252 251 260 252 260 266 266 262 270 265 273 275 269
250 252 253 253 250 247 239 234 236 244 243 250 251 253 267 248 255 273 261 266 264 260
248 249 252 251 245 239 234 235 233 230 236 242 248 254 251 250 246 255 249 250 259 258
247 250 247 244 232 233 233 234 233 236 246 249 238 246 235 231 237 237 242 248 253 260
245 239 233 231 231 232 237 243 244 239 235 233 228 224 220 224 232 240 249 261 269 272
244 237 231 230 232 233 233 233 230 227 220 213 212 218 227 235 242 250 257 266 273 280
242 238 235 232 231 234 231 226 218 210 210 214 222 228 235 241 246 252 262 270 276 281
236 234 232 229 227 224 219 214 214 216 218 220 225 228 230 237 244 252 260 275 282 285
236 232 228 224 220 216 215 215 216 216 219 221 222 227 236 248 260 258 262 274 273 277
231 228 224 221 218 216 216 216 215 216 217 217 218 223 228 235 235 237 246 251 257 266
228 225 222 219 218 216 215 216 216 214 214 217 221 228 245 246 237 240 241 240 249 268
228 224 221 219 218 217 217 217 216 215 216 223 241 242 232 232 235 244 249 255 268 278
226 224 221 219 217 216 215 216 214 217 228 236 234 236 229 236 240 251 259 273 283 293
224 223 220 220 218 218 217 217 220 224 223 223 232 238 238 244 246 250 258 265 273 281